SCP
0 0 0 0 0 0 0 0 0 0 0 1 1 0 0 0 0 0 0 0 0 0
0 0 0 0 0 0 0 0 0 0 0 0 0 1 0 0 1 1 0 1 1 0
0 0 0 0 0 0 0 0 0 0 0 0 0 0 1 1 1 0 1 1 1 0
0 0 0 0 0 0 0 0 0 0 0 0 0 0 0 1 0 0 0 0 1 1
-0 -0 -0 -0 0 0 0 0 0 0 0 0 0 0 0 0 0 0 0 0 0 0
-0 -0 -0 -0 0 0 0 0 0 0 0 0 0 0 0 0 0 0 1 0 0 1
-0 -0 -0 -0 0 0 0 0 0 0 0 0 0 0 0 0 0 0 0 0 0 1
-0 0 0 0 0 0 0 0 0 0 0 0 0 0 0 0 0 0 0 0 0 0
-0 -0 -0 0 0 0 0 0 0 0 0 0 0 0 0 0 0 0 0 0 0 0
0 0 0 0 0 0 0 0 0 0 0 0 0 0 0 0 0 0 0 0 0 0
0 0 0 0 0 0 0 0 0 0 0 0 0 0 0 0 0 0 0 0 0 0
0 0 0 0 0 0 0 0 0 0 0 0 0 0 0 0 0 0 0 0 0 0
0 0 0 0 0 0 0 0 0 0 0 0 0 0 0 0 0 0 0 0 0 0
0 0 0 0 0 0 0 0 0 0 0 0 0 0 0 0 0 0 0 0 0 0
Wind_Speed_500mb
21 14 8 8 9 11 14 19 19 17 23 37 32 30 24 26 30 33 41 45 56 56
21 15 11 9 8 8 10 15 21 23 21 25 33 36 37 38 36 39 40 41 37 43
29 22 16 15 17 19 19 18 22 25 27 27 28 29 33 36 43 49 49 49 47 42
32 33 33 28 28 31 31 31 31 32 33 35 33 30 27 31 35 38 41 43 41 41
36 33 29 26 26 29 33 33 32 30 30 32 35 32 30 24 36 37 37 35 34 36
41 38 35 31 29 29 30 29 24 25 24 24 27 29 27 24 24 34 39 36 33 30
47 47 41 33 30 31 30 31 26 24 23 25 25 24 23 23 23 26 37 31 30 30
50 46 42 41 42 39 35 30 30 26 23 22 25 27 25 22 21 21 19 22 35 38
46 43 42 38 39 42 41 37 33 31 31 30 26 25 25 23 21 18 19 17 14 15
33 34 33 33 33 34 39 41 39 37 36 35 33 32 30 30 31 28 23 20 17 14
31 32 31 29 31 33 33 34 37 42 43 43 40 40 41 39 39 38 36 33 28 26
33 36 36 36 36 36 37 39 39 36 38 44 49 47 49 51 50 50 47 40 35 35
44 45 44 42 38 38 36 36 36 35 36 37 38 39 48 56 60 61 57 52 45 42
43 46 46 43 38 41 39 36 34 37 36 37 38 40 40 43 51 60 67 66 61 53
Wind_Direction_500mb
109 103 77 63 26 356 337 330 325 310 289 275 277 277 279 283 275 268 266 263 259 262
67 79 76 50 18 336 328 328 337 336 318 300 291 277 265 272 272 272 274 264 263 266
14 12 6 354 348 340 338 336 333 332 331 330 328 301 280 269 263 266 269 267 263 263
350 340 333 330 325 319 318 320 325 328 335 330 326 329 304 284 273 271 272 270 270 270
348 335 332 331 330 322 319 315 313 318 324 336 338 332 332 292 285 282 279 276 272 268
338 325 327 330 329 318 315 313 310 309 311 322 338 338 334 330 293 292 286 280 274 272
324 324 328 327 323 323 314 310 312 292 289 303 316 326 330 326 321 295 281 273 270 264
328 319 312 311 314 313 313 309 311 307 285 285 295 306 315 326 326 315 310 290 276 272
326 328 328 318 302 298 300 301 298 295 298 287 288 295 301 303 306 317 321 319 322 313
322 326 327 331 331 318 302 295 291 290 286 289 289 291 292 293 292 295 302 303 303 302
308 309 312 313 314 315 317 317 305 288 284 283 277 283 288 285 284 283 285 291 294 289
312 309 308 311 307 308 309 310 310 307 301 286 279 273 275 280 281 281 280 281 286 283
311 306 306 300 298 300 303 307 310 305 300 300 301 292 275 272 274 277 281 279 277 279
306 305 299 294 292 296 300 302 301 300 301 297 296 293 293 288 282 278 277 276 274 275
Wind_Speed_850mb
21 14 8 8 9 11 14 19 19 17 23 37 32 30 24 26 30 33 41 45 56 56
21 15 11 9 8 8 10 15 21 23 21 25 33 36 37 38 36 39 40 41 37 43
29 22 16 15 17 19 19 18 22 25 27 27 28 29 33 36 43 49 49 49 47 42
32 33 33 28 28 31 31 31 31 32 33 35 33 30 27 31 35 38 41 43 41 41
36 33 29 26 26 29 33 33 32 30 30 32 35 32 30 24 36 37 37 35 34 36
41 38 35 31 29 29 30 29 24 25 24 24 27 29 27 24 24 34 39 36 33 30
47 47 41 33 30 31 30 31 26 24 23 25 25 24 23 23 23 26 37 31 30 30
50 46 42 41 42 39 35 30 30 26 23 22 25 27 25 22 21 21 19 22 35 38
46 43 42 38 39 42 41 37 33 31 31 30 26 25 25 23 21 18 19 17 14 15
33 34 33 33 33 34 39 41 39 37 36 35 33 32 30 30 31 28 23 20 17 14
31 32 31 29 31 33 33 34 37 42 43 43 40 40 41 39 39 38 36 33 28 26
33 36 36 36 36 36 37 39 39 36 38 44 49 47 49 51 50 50 47 40 35 35
44 45 44 42 38 38 36 36 36 35 36 37 38 39 48 56 60 61 57 52 45 42
43 46 46 43 38 41 39 36 34 37 36 37 38 40 40 43 51 60 67 66 61 53
Wind_Direction_850mb
109 103 77 63 26 356 337 330 325 310 289 275 277 277 279 283 275 268 266 263 259 262
67 79 76 50 18 336 328 328 337 336 318 300 291 277 265 272 272 272 274 264 263 266
14 12 6 354 348 340 338 336 333 332 331 330 328 301 280 269 263 266 269 267 263 263
350 340 333 330 325 319 318 320 325 328 335 330 326 329 304 284 273 271 272 270 270 270
348 335 332 331 330 322 319 315 313 318 324 336 338 332 332 292 285 282 279 276 272 268
338 325 327 330 329 318 315 313 310 309 311 322 338 338 334 330 293 292 286 280 274 272
324 324 328 327 323 323 314 310 312 292 289 303 316 326 330 326 321 295 281 273 270 264
328 319 312 311 314 313 313 309 311 307 285 285 295 306 315 326 326 315 310 290 276 272
326 328 328 318 302 298 300 301 298 295 298 287 288 295 301 303 306 317 321 319 322 313
322 326 327 331 331 318 302 295 291 290 286 289 289 291 292 293 292 295 302 303 303 302
308 309 312 313 314 315 317 317 305 288 284 283 277 283 288 285 284 283 285 291 294 289
312 309 308 311 307 308 309 310 310 307 301 286 279 273 275 280 281 281 280 281 286 283
311 306 306 300 298 300 303 307 310 305 300 300 301 292 275 272 274 277 281 279 277 279
306 305 299 294 292 296 300 302 301 300 301 297 296 293 293 288 282 278 277 276 274 275